New Delhi, India

9:49 AM IST on September 25, 2016 (GMT +0530)
Indira Gandhi International

Weather History for VIDP - March, 2013

Change the Weather History Date:

Sunday, March 3, 2013

  Actual Average Record
Temperature  
Mean Temperature 66 °F -  
Max Temperature 80 °F 79 °F 94 °F (2016)
Min Temperature 53 °F 55 °F 48 °F (1997)
Cooling Degree Days 2    
Growing Degree Days 16 (Base 50)    
Moisture  
Dew Point 56 °F    
Average Humidity 71    
Maximum Humidity 100    
Minimum Humidity 39    
Precipitation  
Precipitation 0.00 in - - ()
Sea Level Pressure  
Sea Level Pressure 30.01 in    
Wind  
Wind Speed 6 mph ()    
Max Wind Speed 14 mph    
Max Gust Speed -    
Visibility 1.5 miles    
Events      
Averages and records for this station are not official NWS values.
T = Trace of Precipitation, MM = Missing Value Source: Averaged Metar Reports

Daily Weather History Graph

Daily Weather History Graph

Search for Another Location

Airport or City:

Trip Planner

Search our weather history database for the weather conditions in past years. The results will help you decide how hot, cold, wet, or windy it might be!

Date:

Astronomy

Mar. 03, 2013 Rise Set
Actual Time 6:44 AM IST 6:22 PM IST
Civil Twilight 6:20 AM IST 6:46 PM IST
Nautical Twilight 5:53 AM IST 7:13 PM IST
Astronomical Twilight 5:26 AM IST 7:41 PM IST
Moon 12:04 AM IST (3/4) 10:07 AM IST (3/3)
Length of Visible Light 12h 25m
Length of Day
11h 38m
Waning Gibbous, 68% of the Moon is Illuminated
Mar 3
Waning Gibbous
Mar 5
Last Quarter
Mar 12
New
Mar 19
First Quarter
Mar 27
Full

Hourly Weather History & Observations

Time (IST) Temp. Heat Index Dew Point Humidity Pressure Visibility Wind Dir Wind Speed Gust Speed Precip Events Conditions
12:00 AM 62.6 °F - 53.6 °F 72% 30.04 in 1.6 mi WNW 4.6 mph - N/A   Haze
12:30 AM 62.6 °F - 53.6 °F 72% 30.04 in 1.6 mi West 5.8 mph - N/A   Haze
1:00 AM 62.6 °F - 53.6 °F 72% 30.01 in 1.6 mi West 4.6 mph - N/A   Haze
1:30 AM 60.8 °F - 53.6 °F 77% 30.01 in 1.6 mi West 4.6 mph - N/A   Haze
2:00 AM 59.0 °F - 53.6 °F 82% 30.01 in 1.6 mi SW 3.5 mph - N/A   Haze
2:30 AM 57.2 °F - 53.6 °F 88% 30.01 in 1.6 mi SW 3.5 mph - N/A   Mist
3:00 AM 57.2 °F - 53.6 °F 88% 30.01 in 1.6 mi WSW 5.8 mph - N/A   Mist
3:30 AM 57.2 °F - 53.6 °F 88% 29.98 in 1.6 mi WSW 4.6 mph - N/A   Mist
4:00 AM 55.4 °F - 53.6 °F 94% 29.98 in 1.2 mi West 4.6 mph - N/A   Mist
4:30 AM 55.4 °F - 53.6 °F 94% 29.98 in 1.1 mi WSW 5.8 mph - N/A   Mist
5:00 AM 55.4 °F - 53.6 °F 94% 30.01 in 1.1 mi WSW 4.6 mph - N/A   Mist
5:30 AM 53.6 °F - 51.8 °F 94% 30.01 in 1.0 mi West 5.8 mph - N/A   Mist
6:30 AM 53.6 °F - 51.8 °F 94% 30.01 in 0.7 mi WSW 4.6 mph - N/A   Mist
7:00 AM 53.6 °F - 51.8 °F 94% 30.04 in 0.7 mi WSW 6.9 mph - N/A   Mist
7:30 AM 53.6 °F - 51.8 °F 94% 30.04 in 0.7 mi WSW 5.8 mph - N/A   Mist
8:00 AM 55.4 °F - 55.4 °F 100% 30.04 in 0.8 mi WSW 3.5 mph - N/A   Mist
9:00 AM 60.8 °F - 60.8 °F 100% 30.06 in 1.1 mi West 6.9 mph - N/A   Mist
9:30 AM 62.6 °F - 60.8 °F 94% 30.06 in 1.2 mi West 6.9 mph - N/A   Mist
10:30 AM 69.8 °F - 60.8 °F 73% 30.06 in 1.6 mi WNW 8.1 mph - N/A   Haze
11:00 AM 71.6 °F - 59.0 °F 64% 30.06 in 1.7 mi WNW 9.2 mph - N/A   Haze
11:30 AM 73.4 °F - 55.4 °F 53% 30.06 in 1.7 mi WNW 10.4 mph - N/A   Haze
12:30 PM 77.0 °F - 55.4 °F 47% 30.04 in 2.2 mi WNW 10.4 mph - N/A   Haze
1:00 PM 77.0 °F - 53.6 °F 44% 30.04 in 2.2 mi WNW 11.5 mph - N/A   Haze
1:30 PM 78.8 °F - 57.2 °F 47% 30.04 in 2.2 mi West 12.7 mph - N/A   Haze
2:00 PM 78.8 °F - 55.4 °F 44% 30.01 in - WNW 12.7 mph - N/A   Haze
2:30 PM 80.6 °F 80.5 °F 55.4 °F 42% 30.01 in - WNW 11.5 mph - N/A   Haze
3:00 PM 80.6 °F 80.3 °F 53.6 °F 39% 29.98 in - WNW 13.8 mph - N/A   Haze
3:30 PM 80.6 °F 80.3 °F 53.6 °F 39% 29.98 in - WNW 13.8 mph - N/A   Haze
4:00 PM 80.6 °F 80.5 °F 55.4 °F 42% 29.98 in - WNW 12.7 mph - N/A   Haze
4:30 PM 80.6 °F 80.5 °F 55.4 °F 42% 29.98 in - West 11.5 mph - N/A   Haze
5:00 PM 80.6 °F 80.5 °F 55.4 °F 42% 29.98 in 2.5 mi West 10.4 mph - N/A   Haze
5:30 PM 78.8 °F - 53.6 °F 42% 29.95 in 2.5 mi WNW 9.2 mph - N/A   Haze
6:00 PM 77.0 °F - 55.4 °F 47% 29.95 in 2.8 mi WNW 8.1 mph - N/A   Haze
6:30 PM 75.2 °F - 55.4 °F 50% 29.98 in 2.8 mi WNW 5.8 mph - N/A   Haze
7:30 PM 73.4 °F - 57.2 °F 57% 29.98 in 2.2 mi West 2.3 mph - N/A   Haze
8:30 PM 69.8 °F - 57.2 °F 64% 30.01 in 1.6 mi Calm Calm - N/A   Haze
9:00 PM 69.8 °F - 59.0 °F 68% 30.01 in 1.4 mi Calm Calm - N/A   Smoke
9:30 PM 66.2 °F - 60.8 °F 83% 30.01 in 1.2 mi Calm Calm - N/A   Mist
10:00 PM 66.2 °F - 62.6 °F 88% 30.01 in 1.0 mi Calm Calm - N/A   Mist
10:30 PM 64.4 °F - 64.4 °F 100% 30.01 in 1.0 mi Calm Calm - N/A   Mist
11:30 PM 64.4 °F - 64.4 °F 100% 30.01 in 0.9 mi Calm Calm - N/A   Mist